TimePDT,TemperatureF,Dew PointF,Humidity,Sea Level PressureIn,VisibilityMPH,Wind Direction,Wind SpeedMPH,Gust SpeedMPH,PrecipitationIn,Events,Conditions,WindDirDegrees,DateUTC
12:56 AM,62.1,48.9,62,30.01,10.0,Calm,Calm,-,N/A,,Clear,0,2012-09-08 07:56:00
1:56 AM,57.9,48.0,70,30.01,10.0,Calm,Calm,-,N/A,,Clear,0,2012-09-08 08:56:00
2:56 AM,55.9,48.0,75,30.01,10.0,Calm,Calm,-,N/A,,Clear,0,2012-09-08 09:56:00
3:56 AM,55.0,46.0,72,30.02,10.0,Calm,Calm,-,N/A,,Clear,0,2012-09-08 10:56:00
4:56 AM,54.0,46.0,75,30.02,10.0,Calm,Calm,-,N/A,,Clear,0,2012-09-08 11:56:00
5:56 AM,54.0,46.0,75,30.02,10.0,Calm,Calm,-,N/A,,Clear,0,2012-09-08 12:56:00
6:56 AM,51.1,46.0,83,30.02,10.0,Calm,Calm,-,N/A,,Clear,0,2012-09-08 13:56:00
7:56 AM,54.0,46.0,75,30.03,10.0,Calm,Calm,-,N/A,,Clear,0,2012-09-08 14:56:00
8:56 AM,61.0,48.0,62,30.03,10.0,Calm,Calm,-,N/A,,Clear,0,2012-09-08 15:56:00
9:56 AM,66.9,48.9,52,30.03,10.0,Calm,Calm,-,N/A,,Clear,0,2012-09-08 16:56:00
10:56 AM,72.0,48.9,44,30.02,10.0,Variable,3.5,-,0.00,,Clear,0,2012-09-08 17:56:00
11:56 AM,78.1,45.0,31,30.00,10.0,Variable,3.5,-,N/A,,Clear,0,2012-09-08 18:56:00
12:56 PM,84.0,46.0,26,29.97,10.0,SE,4.6,-,N/A,,Clear,130,2012-09-08 19:56:00
1:56 PM,89.1,44.1,21,29.95,10.0,East,3.5,-,N/A,,Clear,100,2012-09-08 20:56:00
2:56 PM,91.9,42.1,18,29.92,10.0,Variable,5.8,-,N/A,,Clear,0,2012-09-08 21:56:00
3:56 PM,91.9,41.0,17,29.91,10.0,NNW,8.1,-,N/A,,Clear,330,2012-09-08 22:56:00
4:56 PM,86.0,45.0,24,29.91,10.0,NE,8.1,-,N/A,,Clear,40,2012-09-08 23:56:00
5:56 PM,81.0,43.0,26,29.92,10.0,NNE,9.2,-,N/A,,Clear,20,2012-09-09 00:56:00
6:56 PM,73.9,43.0,33,29.93,8.0,North,9.2,20.7,N/A,,Clear,350,2012-09-09 01:56:00
7:56 PM,70.0,44.1,39,29.94,10.0,Calm,Calm,-,N/A,,Clear,0,2012-09-09 02:56:00
8:56 PM,64.4,42.8,45,29.97,10.0,NNW,4.6,-,N/A,,Clear,330,2012-09-09 03:56:00
9:56 PM,62.1,45.0,53,29.97,10.0,Calm,Calm,-,N/A,,Clear,0,2012-09-09 04:56:00
10:56 PM,57.9,43.0,58,29.98,10.0,Calm,Calm,-,N/A,,Clear,0,2012-09-09 05:56:00
11:56 PM,55.9,42.1,60,29.98,10.0,Calm,Calm,-,N/A,,Clear,0,2012-09-09 06:56:00